Year,Month,Day,Hour,Minute,Value (Times are PST for temperature in C)
2015,06,13,00,00,12.50
2015,06,13,00,01,12.40
2015,06,13,00,02,12.40
2015,06,13,00,03,12.30
2015,06,13,00,04,12.20
2015,06,13,00,05,12.20
2015,06,13,00,06,12.20
2015,06,13,00,07,12.20
2015,06,13,00,08,12.10
2015,06,13,00,09,12.10
2015,06,13,00,10,12.00
2015,06,13,00,11,12.00
2015,06,13,00,12,12.00
2015,06,13,00,13,11.90
2015,06,13,00,14,11.90
2015,06,13,00,15,11.90
2015,06,13,00,16,11.80
2015,06,13,00,17,11.80
2015,06,13,00,18,11.80
2015,06,13,00,19,11.80
2015,06,13,00,20,11.70
2015,06,13,00,21,11.70
2015,06,13,00,22,11.70
2015,06,13,00,23,11.60
2015,06,13,00,24,11.60
2015,06,13,00,25,11.50
2015,06,13,00,26,11.50
2015,06,13,00,27,11.50
2015,06,13,00,28,11.40
2015,06,13,00,29,11.40
2015,06,13,00,30,11.40
2015,06,13,00,31,11.40
2015,06,13,00,32,11.40
2015,06,13,00,33,11.30
2015,06,13,00,34,11.30
2015,06,13,00,35,11.30
2015,06,13,00,36,11.30
2015,06,13,00,37,11.30
2015,06,13,00,38,11.30
2015,06,13,00,39,11.30
2015,06,13,00,40,11.20
2015,06,13,00,41,11.20
2015,06,13,00,42,11.20
2015,06,13,00,43,11.10
2015,06,13,00,44,11.10
2015,06,13,00,45,11.10
2015,06,13,00,46,11.00
2015,06,13,00,47,11.00
2015,06,13,00,48,10.90
2015,06,13,00,49,10.90
2015,06,13,00,50,10.90
2015,06,13,00,51,10.90
2015,06,13,00,52,10.90
2015,06,13,00,53,10.90
2015,06,13,00,54,10.90
2015,06,13,00,55,10.90
2015,06,13,00,56,10.90
2015,06,13,00,57,10.80
2015,06,13,00,58,10.80
2015,06,13,00,59,10.80
2015,06,13,01,00,10.80
2015,06,13,01,01,10.80
2015,06,13,01,02,10.80
2015,06,13,01,03,10.70
2015,06,13,01,04,10.70
2015,06,13,01,05,10.70
2015,06,13,01,06,10.70
2015,06,13,01,07,10.70
2015,06,13,01,08,10.70
2015,06,13,01,09,10.60
2015,06,13,01,10,10.60
2015,06,13,01,11,10.60
2015,06,13,01,12,10.60
2015,06,13,01,13,10.60
2015,06,13,01,14,10.60
2015,06,13,01,15,10.60
2015,06,13,01,16,10.60
2015,06,13,01,17,10.60
2015,06,13,01,18,10.60
2015,06,13,01,19,10.50
2015,06,13,01,20,10.50
2015,06,13,01,21,10.50
2015,06,13,01,22,10.50
2015,06,13,01,23,10.40
2015,06,13,01,24,10.40
2015,06,13,01,25,10.30
2015,06,13,01,26,10.30
2015,06,13,01,27,10.30
2015,06,13,01,28,10.30
2015,06,13,01,29,10.30
2015,06,13,01,30,10.30
2015,06,13,01,31,10.20
2015,06,13,01,32,10.20
2015,06,13,01,33,10.20
2015,06,13,01,34,10.20
2015,06,13,01,35,10.20
2015,06,13,01,36,10.20
2015,06,13,01,37,10.10
2015,06,13,01,38,10.10
2015,06,13,01,39,10.10
2015,06,13,01,40,10.10
2015,06,13,01,41,10.10
2015,06,13,01,42,10.10
2015,06,13,01,43,10.10
2015,06,13,01,44,10.10
2015,06,13,01,45,10.10
2015,06,13,01,46,10.10
2015,06,13,01,47,10.10
2015,06,13,01,48,10.10
2015,06,13,01,49,10.10
2015,06,13,01,50,10.10
2015,06,13,01,51,10.00
2015,06,13,01,52,10.00
2015,06,13,01,53,10.00
2015,06,13,01,54,9.90
2015,06,13,01,55,9.90
2015,06,13,01,56,9.90
2015,06,13,01,57,9.90
2015,06,13,01,58,9.90
2015,06,13,01,59,9.90
2015,06,13,02,00,9.90
2015,06,13,02,01,9.80
2015,06,13,02,02,9.80
2015,06,13,02,03,9.80
2015,06,13,02,04,9.80
2015,06,13,02,05,9.80
2015,06,13,02,06,9.80
2015,06,13,02,07,9.80
2015,06,13,02,08,9.80
2015,06,13,02,09,9.80
2015,06,13,02,10,9.80
2015,06,13,02,11,9.80
2015,06,13,02,12,9.80
2015,06,13,02,13,9.80
2015,06,13,02,14,9.80
2015,06,13,02,15,9.80
2015,06,13,02,16,9.80
2015,06,13,02,17,9.80
2015,06,13,02,18,9.70
2015,06,13,02,19,9.70
2015,06,13,02,20,9.70
2015,06,13,02,21,9.70
2015,06,13,02,22,9.70
2015,06,13,02,23,9.70
2015,06,13,02,24,9.70
2015,06,13,02,25,9.60
2015,06,13,02,26,9.60
2015,06,13,02,27,9.60
2015,06,13,02,28,9.60
2015,06,13,02,29,9.60
2015,06,13,02,30,9.60
2015,06,13,02,31,9.60
2015,06,13,02,32,9.60
2015,06,13,02,33,9.60
2015,06,13,02,34,9.60
2015,06,13,02,35,9.50
2015,06,13,02,36,9.50
2015,06,13,02,37,9.50
2015,06,13,02,38,9.50
2015,06,13,02,39,9.50
2015,06,13,02,40,9.40
2015,06,13,02,41,9.40
2015,06,13,02,42,9.40
2015,06,13,02,43,9.40
2015,06,13,02,44,9.40
2015,06,13,02,45,9.40
2015,06,13,02,46,9.40
2015,06,13,02,47,9.40
2015,06,13,02,48,9.40
2015,06,13,02,49,9.40
2015,06,13,02,50,9.30
2015,06,13,02,51,9.30
2015,06,13,02,52,9.30
2015,06,13,02,53,9.30
2015,06,13,02,54,9.30
2015,06,13,02,55,9.30
2015,06,13,02,56,9.20
2015,06,13,02,57,9.20
2015,06,13,02,58,9.20
2015,06,13,02,59,9.20
2015,06,13,03,00,9.20
2015,06,13,03,01,9.20
2015,06,13,03,02,9.20
2015,06,13,03,03,9.20
2015,06,13,03,04,9.10
2015,06,13,03,05,9.10
2015,06,13,03,06,9.10
2015,06,13,03,07,9.10
2015,06,13,03,08,9.10
2015,06,13,03,09,9.10
2015,06,13,03,10,9.10
2015,06,13,03,11,9.10
2015,06,13,03,12,9.10
2015,06,13,03,13,9.10
2015,06,13,03,14,9.10
2015,06,13,03,15,9.10
2015,06,13,03,16,9.10
2015,06,13,03,17,9.10
2015,06,13,03,18,9.10
2015,06,13,03,19,9.10
2015,06,13,03,20,9.10
2015,06,13,03,21,9.10
2015,06,13,03,22,9.10
2015,06,13,03,23,9.10
2015,06,13,03,24,9.10
2015,06,13,03,25,9.10
2015,06,13,03,26,9.10
2015,06,13,03,27,9.10
2015,06,13,03,28,9.10
2015,06,13,03,29,9.10
2015,06,13,03,30,9.10
2015,06,13,03,31,9.10
2015,06,13,03,32,9.10
2015,06,13,03,33,9.10
2015,06,13,03,34,9.10
2015,06,13,03,35,9.10
2015,06,13,03,36,9.10
2015,06,13,03,37,9.10
2015,06,13,03,38,9.10
2015,06,13,03,39,9.10
2015,06,13,03,40,9.10
2015,06,13,03,41,9.10
2015,06,13,03,42,9.20
2015,06,13,03,43,9.20
2015,06,13,03,44,9.20
2015,06,13,03,45,9.20
2015,06,13,03,46,9.20
2015,06,13,03,47,9.30
2015,06,13,03,48,9.30
2015,06,13,03,49,9.30
2015,06,13,03,50,9.30
2015,06,13,03,51,9.30
2015,06,13,03,52,9.30
2015,06,13,03,53,9.30
2015,06,13,03,54,9.40
2015,06,13,03,55,9.40
2015,06,13,03,56,9.40
2015,06,13,03,57,9.40
2015,06,13,03,58,9.40
2015,06,13,03,59,9.40
2015,06,13,04,00,9.40
2015,06,13,04,01,9.50
2015,06,13,04,02,9.50
2015,06,13,04,03,9.50
2015,06,13,04,04,9.50
2015,06,13,04,05,9.50
2015,06,13,04,06,9.50
2015,06,13,04,07,9.50
2015,06,13,04,08,9.50
2015,06,13,04,09,9.40
2015,06,13,04,10,9.40
2015,06,13,04,11,9.40
2015,06,13,04,12,9.40
2015,06,13,04,13,9.40
2015,06,13,04,14,9.40
2015,06,13,04,15,9.40
2015,06,13,04,16,9.40
2015,06,13,04,17,9.40
2015,06,13,04,18,9.40
2015,06,13,04,19,9.40
2015,06,13,04,20,9.40
2015,06,13,04,21,9.40
2015,06,13,04,22,9.40
2015,06,13,04,23,9.40
2015,06,13,04,24,9.40
2015,06,13,04,25,9.40
2015,06,13,04,26,9.40
2015,06,13,04,27,9.40
2015,06,13,04,28,9.40
2015,06,13,04,29,9.40
2015,06,13,04,30,9.40
2015,06,13,04,31,9.40
2015,06,13,04,32,9.40
2015,06,13,04,33,9.30
2015,06,13,04,34,9.30
2015,06,13,04,35,9.30
2015,06,13,04,36,9.30
2015,06,13,04,37,9.30
2015,06,13,04,38,9.30
2015,06,13,04,39,9.30
2015,06,13,04,40,9.30
2015,06,13,04,41,9.30
2015,06,13,04,42,9.30
2015,06,13,04,43,9.30
2015,06,13,04,44,9.30
2015,06,13,04,45,9.30
2015,06,13,04,46,9.20
2015,06,13,04,47,9.20
2015,06,13,04,48,9.20
2015,06,13,04,49,9.20
2015,06,13,04,50,9.20
2015,06,13,04,51,9.10
2015,06,13,04,52,9.10
2015,06,13,04,53,9.10
2015,06,13,04,54,9.10
2015,06,13,04,55,9.10
2015,06,13,04,56,9.20
2015,06,13,04,57,9.20
2015,06,13,04,58,9.20
2015,06,13,04,59,9.10
2015,06,13,05,00,9.10
2015,06,13,05,01,9.10
2015,06,13,05,02,9.10
2015,06,13,05,03,9.00
2015,06,13,05,04,9.00
2015,06,13,05,05,9.00
2015,06,13,05,06,8.90
2015,06,13,05,07,8.90
2015,06,13,05,08,8.90
2015,06,13,05,09,8.90
2015,06,13,05,10,8.90
2015,06,13,05,11,8.80
2015,06,13,05,12,8.80
2015,06,13,05,13,8.80
2015,06,13,05,14,8.80
2015,06,13,05,15,8.80
2015,06,13,05,16,8.80
2015,06,13,05,17,8.80
2015,06,13,05,18,8.80
2015,06,13,05,19,8.80
2015,06,13,05,20,8.80
2015,06,13,05,21,8.80
2015,06,13,05,22,8.80
2015,06,13,05,23,8.80
2015,06,13,05,24,8.80
2015,06,13,05,25,8.80
2015,06,13,05,26,8.80
2015,06,13,05,27,8.80
2015,06,13,05,28,8.80
2015,06,13,05,29,8.80
2015,06,13,05,30,8.70
2015,06,13,05,31,8.70
2015,06,13,05,32,8.70
2015,06,13,05,33,8.70
2015,06,13,05,34,8.70
2015,06,13,05,35,8.70
2015,06,13,05,36,8.70
2015,06,13,05,37,8.70
2015,06,13,05,38,8.70
2015,06,13,05,39,8.80
2015,06,13,05,40,8.80
2015,06,13,05,41,8.80
2015,06,13,05,42,8.80
2015,06,13,05,43,8.80
2015,06,13,05,44,8.80
2015,06,13,05,45,8.80
2015,06,13,05,46,8.80
2015,06,13,05,47,8.80
2015,06,13,05,48,8.80
2015,06,13,05,49,8.80
2015,06,13,05,50,8.80
2015,06,13,05,51,8.80
2015,06,13,05,52,8.90
2015,06,13,05,53,8.90
2015,06,13,05,54,9.00
2015,06,13,05,55,9.00
2015,06,13,05,56,9.10
2015,06,13,05,57,9.10
2015,06,13,05,58,9.10
2015,06,13,05,59,9.10
2015,06,13,06,00,9.10
2015,06,13,06,01,9.10
2015,06,13,06,02,9.10
2015,06,13,06,03,9.20
2015,06,13,06,04,9.20
2015,06,13,06,05,9.20
2015,06,13,06,06,9.20
2015,06,13,06,07,9.20
2015,06,13,06,08,9.20
2015,06,13,06,09,9.20
2015,06,13,06,10,9.20
2015,06,13,06,11,9.20
2015,06,13,06,12,9.30
2015,06,13,06,13,9.30
2015,06,13,06,14,9.30
2015,06,13,06,15,9.30
2015,06,13,06,16,9.30
2015,06,13,06,17,9.40
2015,06,13,06,18,9.40
2015,06,13,06,19,9.40
2015,06,13,06,20,9.40
2015,06,13,06,21,9.50
2015,06,13,06,22,9.50
2015,06,13,06,23,9.60
2015,06,13,06,24,9.60
2015,06,13,06,25,9.60
2015,06,13,06,26,9.70
2015,06,13,06,27,9.70
2015,06,13,06,28,9.70
2015,06,13,06,29,9.70
2015,06,13,06,30,9.80
2015,06,13,06,31,9.80
2015,06,13,06,32,9.90
2015,06,13,06,33,9.90
2015,06,13,06,34,10.00
2015,06,13,06,35,10.10
2015,06,13,06,36,10.20
2015,06,13,06,37,10.30
2015,06,13,06,38,10.30
2015,06,13,06,39,10.40
2015,06,13,06,40,10.40
2015,06,13,06,41,10.40
2015,06,13,06,42,10.50
2015,06,13,06,43,10.50
2015,06,13,06,44,10.60
2015,06,13,06,45,10.60
2015,06,13,06,46,10.70
2015,06,13,06,47,10.80
2015,06,13,06,48,11.00
2015,06,13,06,49,11.10
2015,06,13,06,50,11.30
2015,06,13,06,51,11.50
2015,06,13,06,52,11.60
2015,06,13,06,53,11.80
2015,06,13,06,54,11.90
2015,06,13,06,55,12.00
2015,06,13,06,56,12.10
2015,06,13,06,57,12.20
2015,06,13,06,58,12.20
2015,06,13,06,59,12.30
2015,06,13,07,00,12.30
2015,06,13,07,01,12.30
2015,06,13,07,02,12.30
2015,06,13,07,03,12.30
2015,06,13,07,04,12.30
2015,06,13,07,05,12.30
2015,06,13,07,06,12.20
2015,06,13,07,07,12.30
2015,06,13,07,08,12.30
2015,06,13,07,09,12.40
2015,06,13,07,10,12.40
2015,06,13,07,11,12.50
2015,06,13,07,12,12.60
2015,06,13,07,13,12.60
2015,06,13,07,14,12.70
2015,06,13,07,15,12.80
2015,06,13,07,16,12.90
2015,06,13,07,17,13.00
2015,06,13,07,18,13.20
2015,06,13,07,19,13.30
2015,06,13,07,20,13.40
2015,06,13,07,21,13.50
2015,06,13,07,22,13.70
2015,06,13,07,23,13.80
2015,06,13,07,24,13.80
2015,06,13,07,25,13.80
2015,06,13,07,26,13.90
2015,06,13,07,27,13.90
2015,06,13,07,28,14.00
2015,06,13,07,29,14.00
2015,06,13,07,30,14.00
2015,06,13,07,31,14.00
2015,06,13,07,32,14.00
2015,06,13,07,33,13.90
2015,06,13,07,34,13.80
2015,06,13,07,35,13.80
2015,06,13,07,36,13.80
2015,06,13,07,37,13.80
2015,06,13,07,38,13.90
2015,06,13,07,39,13.90
2015,06,13,07,40,14.00
2015,06,13,07,41,14.00
2015,06,13,07,42,14.10
2015,06,13,07,43,14.10
2015,06,13,07,44,14.10
2015,06,13,07,45,14.10
2015,06,13,07,46,14.10
2015,06,13,07,47,14.20
2015,06,13,07,48,14.30
2015,06,13,07,49,14.30
2015,06,13,07,50,14.30
2015,06,13,07,51,14.20
2015,06,13,07,52,14.20
2015,06,13,07,53,14.20
2015,06,13,07,54,14.30
2015,06,13,07,55,14.30
2015,06,13,07,56,14.30
2015,06,13,07,57,14.30
2015,06,13,07,58,14.30
2015,06,13,07,59,14.40
2015,06,13,08,00,14.50
2015,06,13,08,01,14.60
2015,06,13,08,02,14.60
2015,06,13,08,03,14.70
2015,06,13,08,04,14.70
2015,06,13,08,05,14.70
2015,06,13,08,06,14.70
2015,06,13,08,07,14.70
2015,06,13,08,08,14.60
2015,06,13,08,09,14.70
2015,06,13,08,10,14.70
2015,06,13,08,11,14.80
2015,06,13,08,12,14.80
2015,06,13,08,13,14.90
2015,06,13,08,14,14.90
2015,06,13,08,15,14.90
2015,06,13,08,16,14.90
2015,06,13,08,17,14.90
2015,06,13,08,18,15.00
2015,06,13,08,19,14.90
2015,06,13,08,20,14.90
2015,06,13,08,21,14.90
2015,06,13,08,22,14.80
2015,06,13,08,23,14.80
2015,06,13,08,24,14.80
2015,06,13,08,25,14.70
2015,06,13,08,26,14.80
2015,06,13,08,27,14.80
2015,06,13,08,28,14.80
2015,06,13,08,29,14.90
2015,06,13,08,30,15.00
2015,06,13,08,31,15.00
2015,06,13,08,32,14.90
2015,06,13,08,33,14.90
2015,06,13,08,34,14.90
2015,06,13,08,35,15.00
2015,06,13,08,36,15.00
2015,06,13,08,37,15.10
2015,06,13,08,38,15.20
2015,06,13,08,39,15.20
2015,06,13,08,40,15.20
2015,06,13,08,41,15.20
2015,06,13,08,42,15.10
2015,06,13,08,43,15.10
2015,06,13,08,44,15.10
2015,06,13,08,45,15.10
2015,06,13,08,46,15.20
2015,06,13,08,47,15.30
2015,06,13,08,48,15.30
2015,06,13,08,49,15.20
2015,06,13,08,50,15.20
2015,06,13,08,51,15.30
2015,06,13,08,52,15.40
2015,06,13,08,53,15.40
2015,06,13,08,54,15.40
2015,06,13,08,55,15.40
2015,06,13,08,56,15.40
2015,06,13,08,57,15.50
2015,06,13,08,58,15.50
2015,06,13,08,59,15.50
2015,06,13,09,00,15.50
2015,06,13,09,01,15.50
2015,06,13,09,02,15.40
2015,06,13,09,03,15.30
2015,06,13,09,04,15.40
2015,06,13,09,05,15.40
2015,06,13,09,06,15.50
2015,06,13,09,07,15.60
2015,06,13,09,08,15.60
2015,06,13,09,09,15.50
2015,06,13,09,10,15.40
2015,06,13,09,11,15.50
2015,06,13,09,12,15.60
2015,06,13,09,13,15.70
2015,06,13,09,14,15.70
2015,06,13,09,15,15.70
2015,06,13,09,16,15.60
2015,06,13,09,17,15.60
2015,06,13,09,18,15.60
2015,06,13,09,19,15.60
2015,06,13,09,20,15.70
2015,06,13,09,21,15.70
2015,06,13,09,22,15.70
2015,06,13,09,23,15.80
2015,06,13,09,24,15.80
2015,06,13,09,25,15.90
2015,06,13,09,26,15.90
2015,06,13,09,27,15.90
2015,06,13,09,28,15.90
2015,06,13,09,29,15.80
2015,06,13,09,30,15.80
2015,06,13,09,31,15.90
2015,06,13,09,32,15.90
2015,06,13,09,33,15.90
2015,06,13,09,34,15.90
2015,06,13,09,35,15.90
2015,06,13,09,36,15.90
2015,06,13,09,37,16.00
2015,06,13,09,38,15.90
2015,06,13,09,39,15.70
2015,06,13,09,40,15.50
2015,06,13,09,41,15.30
2015,06,13,09,42,15.20
2015,06,13,09,43,15.20
2015,06,13,09,44,15.30
2015,06,13,09,45,15.30
2015,06,13,09,46,15.20
2015,06,13,09,47,15.10
2015,06,13,09,48,15.10
2015,06,13,09,49,15.10
2015,06,13,09,50,15.10
2015,06,13,09,51,15.10
2015,06,13,09,52,15.10
2015,06,13,09,53,15.10
2015,06,13,09,54,15.10
2015,06,13,09,55,15.00
2015,06,13,09,56,15.00
2015,06,13,09,57,14.90
2015,06,13,09,58,14.90
2015,06,13,09,59,15.00
2015,06,13,10,00,15.10
2015,06,13,10,01,15.30
2015,06,13,10,02,15.30
2015,06,13,10,03,15.30
2015,06,13,10,04,15.30
2015,06,13,10,05,15.30
2015,06,13,10,06,15.30
2015,06,13,10,07,15.20
2015,06,13,10,08,15.30
2015,06,13,10,09,15.30
2015,06,13,10,10,15.30
2015,06,13,10,11,15.40
2015,06,13,10,12,15.50
2015,06,13,10,13,15.60
2015,06,13,10,14,15.70
2015,06,13,10,15,15.80
2015,06,13,10,16,15.80
2015,06,13,10,17,15.80
2015,06,13,10,18,15.80
2015,06,13,10,19,15.80
2015,06,13,10,20,15.80
2015,06,13,10,21,15.80
2015,06,13,10,22,15.70
2015,06,13,10,23,15.60
2015,06,13,10,24,15.60
2015,06,13,10,25,15.70
2015,06,13,10,26,15.80
2015,06,13,10,27,15.90
2015,06,13,10,28,15.90
2015,06,13,10,29,16.00
2015,06,13,10,30,16.10
2015,06,13,10,31,16.10
2015,06,13,10,32,16.10
2015,06,13,10,33,16.00
2015,06,13,10,34,15.90
2015,06,13,10,35,16.00
2015,06,13,10,36,16.10
2015,06,13,10,37,16.20
2015,06,13,10,38,16.30
2015,06,13,10,39,16.30
2015,06,13,10,40,16.30
2015,06,13,10,41,16.30
2015,06,13,10,42,16.40
2015,06,13,10,43,16.40
2015,06,13,10,44,16.40
2015,06,13,10,45,16.40
2015,06,13,10,46,16.30
2015,06,13,10,47,16.20
2015,06,13,10,48,16.10
2015,06,13,10,49,16.00
2015,06,13,10,50,15.80
2015,06,13,10,51,15.80
2015,06,13,10,52,15.90
2015,06,13,10,53,16.20
2015,06,13,10,54,16.10
2015,06,13,10,55,16.00
2015,06,13,10,56,15.90
2015,06,13,10,57,15.70
2015,06,13,10,58,15.80
2015,06,13,10,59,15.80
2015,06,13,11,00,15.90
2015,06,13,11,01,16.00
2015,06,13,11,02,16.10
2015,06,13,11,03,16.20
2015,06,13,11,04,16.20
2015,06,13,11,05,16.10
2015,06,13,11,06,16.10
2015,06,13,11,07,16.10
2015,06,13,11,08,16.40
2015,06,13,11,09,16.60
2015,06,13,11,10,16.80
2015,06,13,11,11,16.80
2015,06,13,11,12,16.80
2015,06,13,11,13,16.70
2015,06,13,11,14,16.70
2015,06,13,11,15,16.70
2015,06,13,11,16,16.50
2015,06,13,11,17,16.30
2015,06,13,11,18,16.30
2015,06,13,11,19,16.20
2015,06,13,11,20,16.10
2015,06,13,11,21,16.10
2015,06,13,11,22,16.00
2015,06,13,11,23,16.10
2015,06,13,11,24,16.10
2015,06,13,11,25,16.10
2015,06,13,11,26,16.10
2015,06,13,11,27,16.00
2015,06,13,11,28,15.90
2015,06,13,11,29,16.00
2015,06,13,11,30,16.10
2015,06,13,11,31,16.10
2015,06,13,11,32,16.20
2015,06,13,11,33,16.20
2015,06,13,11,34,16.10
2015,06,13,11,35,16.00
2015,06,13,11,36,16.10
2015,06,13,11,37,16.00
2015,06,13,11,38,16.00
2015,06,13,11,39,16.00
2015,06,13,11,40,16.10
2015,06,13,11,41,16.20
2015,06,13,11,42,16.20
2015,06,13,11,43,16.30
2015,06,13,11,44,16.40
2015,06,13,11,45,16.50
2015,06,13,11,46,16.60
2015,06,13,11,47,16.70
2015,06,13,11,48,16.70
2015,06,13,11,49,16.90
2015,06,13,11,50,16.90
2015,06,13,11,51,16.90
2015,06,13,11,52,16.70
2015,06,13,11,53,16.60
2015,06,13,11,54,16.50
2015,06,13,11,55,16.50
2015,06,13,11,56,16.40
2015,06,13,11,57,16.40
2015,06,13,11,58,16.20
2015,06,13,11,59,16.20
2015,06,13,12,00,16.20
2015,06,13,12,01,16.20
2015,06,13,12,02,16.10
2015,06,13,12,03,16.10
2015,06,13,12,04,16.10
2015,06,13,12,05,16.20
2015,06,13,12,06,16.30
2015,06,13,12,07,16.40
2015,06,13,12,08,16.50
2015,06,13,12,09,16.60
2015,06,13,12,10,16.70
2015,06,13,12,11,16.80
2015,06,13,12,12,16.90
2015,06,13,12,13,17.00
2015,06,13,12,14,17.10
2015,06,13,12,15,17.10
2015,06,13,12,16,17.00
2015,06,13,12,17,16.90
2015,06,13,12,18,16.80
2015,06,13,12,19,16.90
2015,06,13,12,20,16.80
2015,06,13,12,21,16.90
2015,06,13,12,22,16.90
2015,06,13,12,23,16.80
2015,06,13,12,24,16.70
2015,06,13,12,25,16.80
2015,06,13,12,26,16.80
2015,06,13,12,27,16.80
2015,06,13,12,28,16.80
2015,06,13,12,29,16.90
2015,06,13,12,30,16.90
2015,06,13,12,31,16.80
2015,06,13,12,32,16.90
2015,06,13,12,33,17.10
2015,06,13,12,34,17.20
2015,06,13,12,35,17.30
2015,06,13,12,36,17.30
2015,06,13,12,37,17.40
2015,06,13,12,38,17.40
2015,06,13,12,39,17.40
2015,06,13,12,40,17.40
2015,06,13,12,41,17.40
2015,06,13,12,42,17.50
2015,06,13,12,43,17.50
2015,06,13,12,44,17.60
2015,06,13,12,45,17.70
2015,06,13,12,46,17.70
2015,06,13,12,47,17.70
2015,06,13,12,48,17.70
2015,06,13,12,49,17.70
2015,06,13,12,50,17.80
2015,06,13,12,51,17.80
2015,06,13,12,52,17.60
2015,06,13,12,53,17.50
2015,06,13,12,54,17.40
2015,06,13,12,55,17.30
2015,06,13,12,56,17.30
2015,06,13,12,57,17.20
2015,06,13,12,58,17.20
2015,06,13,12,59,17.20
2015,06,13,13,00,17.30
2015,06,13,13,01,17.50
2015,06,13,13,02,17.60
2015,06,13,13,03,17.70
2015,06,13,13,04,17.80
2015,06,13,13,05,17.80
2015,06,13,13,06,17.90
2015,06,13,13,07,17.90
2015,06,13,13,08,18.00
2015,06,13,13,09,18.00
2015,06,13,13,10,18.10
2015,06,13,13,11,18.10
2015,06,13,13,12,18.10
2015,06,13,13,13,18.20
2015,06,13,13,14,18.50
2015,06,13,13,15,18.40
2015,06,13,13,16,18.30
2015,06,13,13,17,18.10
2015,06,13,13,18,18.00
2015,06,13,13,19,18.00
2015,06,13,13,20,17.90
2015,06,13,13,21,17.90
2015,06,13,13,22,17.90
2015,06,13,13,23,17.90
2015,06,13,13,24,18.00
2015,06,13,13,25,18.10
2015,06,13,13,26,18.20
2015,06,13,13,27,18.50
2015,06,13,13,28,18.60
2015,06,13,13,29,18.50
2015,06,13,13,30,18.50
2015,06,13,13,31,18.80
2015,06,13,13,32,18.90
2015,06,13,13,33,19.00
2015,06,13,13,34,19.10
2015,06,13,13,35,19.10
2015,06,13,13,36,19.10
2015,06,13,13,37,19.20
2015,06,13,13,38,19.20
2015,06,13,13,39,19.20
2015,06,13,13,40,19.30
2015,06,13,13,41,19.40
2015,06,13,13,42,19.40
2015,06,13,13,43,19.40
2015,06,13,13,44,19.20
2015,06,13,13,45,19.20
2015,06,13,13,46,19.30
2015,06,13,13,47,19.40
2015,06,13,13,48,19.50
2015,06,13,13,49,19.60
2015,06,13,13,50,19.70
2015,06,13,13,51,19.60
2015,06,13,13,52,19.80
2015,06,13,13,53,20.00
2015,06,13,13,54,20.00
2015,06,13,13,55,19.90
2015,06,13,13,56,19.70
2015,06,13,13,57,19.60
2015,06,13,13,58,19.60
2015,06,13,13,59,19.70
2015,06,13,14,00,19.80
2015,06,13,14,01,19.80
2015,06,13,14,02,19.70
2015,06,13,14,03,19.80
2015,06,13,14,04,19.90
2015,06,13,14,05,19.90
2015,06,13,14,06,20.00
2015,06,13,14,07,20.10
2015,06,13,14,08,20.20
2015,06,13,14,09,20.30
2015,06,13,14,10,20.30
2015,06,13,14,11,20.30
2015,06,13,14,12,20.40
2015,06,13,14,13,20.40
2015,06,13,14,14,20.30
2015,06,13,14,15,20.20
2015,06,13,14,16,20.00
2015,06,13,14,17,19.90
2015,06,13,14,18,19.80
2015,06,13,14,19,19.60
2015,06,13,14,20,19.30
2015,06,13,14,21,19.20
2015,06,13,14,22,19.00
2015,06,13,14,23,18.90
2015,06,13,14,24,18.80
2015,06,13,14,25,18.70
2015,06,13,14,26,18.70
2015,06,13,14,27,18.70
2015,06,13,14,28,18.80
2015,06,13,14,29,19.00
2015,06,13,14,30,19.20
2015,06,13,14,31,19.40
2015,06,13,14,32,19.50
2015,06,13,14,33,19.60
2015,06,13,14,34,19.50
2015,06,13,14,35,19.50
2015,06,13,14,36,19.40
2015,06,13,14,37,19.30
2015,06,13,14,38,19.20
2015,06,13,14,39,19.10
2015,06,13,14,40,19.00
2015,06,13,14,41,19.00
2015,06,13,14,42,19.00
2015,06,13,14,43,19.10
2015,06,13,14,44,19.30
2015,06,13,14,45,19.40
2015,06,13,14,46,19.40
2015,06,13,14,47,19.50
2015,06,13,14,48,19.50
2015,06,13,14,49,19.30
2015,06,13,14,50,19.30
2015,06,13,14,51,19.30
2015,06,13,14,52,19.30
2015,06,13,14,53,19.30
2015,06,13,14,54,19.40
2015,06,13,14,55,19.40
2015,06,13,14,56,19.40
2015,06,13,14,57,19.40
2015,06,13,14,58,19.40
2015,06,13,14,59,19.50
2015,06,13,15,00,19.60
2015,06,13,15,01,19.50
2015,06,13,15,02,19.40
2015,06,13,15,03,19.20
2015,06,13,15,04,19.20
2015,06,13,15,05,19.20
2015,06,13,15,06,19.40
2015,06,13,15,07,19.60
2015,06,13,15,08,19.80
2015,06,13,15,09,19.90
2015,06,13,15,10,19.80
2015,06,13,15,11,19.70
2015,06,13,15,12,19.60
2015,06,13,15,13,19.70
2015,06,13,15,14,19.80
2015,06,13,15,15,19.90
2015,06,13,15,16,20.00
2015,06,13,15,17,20.20
2015,06,13,15,18,20.20
2015,06,13,15,19,20.30
2015,06,13,15,20,20.30
2015,06,13,15,21,20.30
2015,06,13,15,22,20.20
2015,06,13,15,23,20.20
2015,06,13,15,24,20.10
2015,06,13,15,25,20.10
2015,06,13,15,26,20.10
2015,06,13,15,27,20.20
2015,06,13,15,28,20.20
2015,06,13,15,29,20.30
2015,06,13,15,30,20.40
2015,06,13,15,31,20.50
2015,06,13,15,32,20.60
2015,06,13,15,33,20.60
2015,06,13,15,34,20.70
2015,06,13,15,35,20.70
2015,06,13,15,36,20.60
2015,06,13,15,37,20.50
2015,06,13,15,38,20.50
2015,06,13,15,39,20.50
2015,06,13,15,40,20.50
2015,06,13,15,41,20.40
2015,06,13,15,42,20.30
2015,06,13,15,43,20.20
2015,06,13,15,44,20.20
2015,06,13,15,45,20.10
2015,06,13,15,46,20.10
2015,06,13,15,47,20.20
2015,06,13,15,48,20.20
2015,06,13,15,49,20.30
2015,06,13,15,50,20.30
2015,06,13,15,51,20.30
2015,06,13,15,52,20.30
2015,06,13,15,53,20.50
2015,06,13,15,54,20.60
2015,06,13,15,55,20.60
2015,06,13,15,56,20.60
2015,06,13,15,57,20.50
2015,06,13,15,58,20.50
2015,06,13,15,59,20.40
2015,06,13,16,00,20.40
2015,06,13,16,01,20.40
2015,06,13,16,02,20.40
2015,06,13,16,03,20.40
2015,06,13,16,04,20.40
2015,06,13,16,05,20.40
2015,06,13,16,06,20.40
2015,06,13,16,07,20.30
2015,06,13,16,08,20.30
2015,06,13,16,09,20.30
2015,06,13,16,10,20.30
2015,06,13,16,11,20.30
2015,06,13,16,12,20.40
2015,06,13,16,13,20.60
2015,06,13,16,14,20.70
2015,06,13,16,15,20.80
2015,06,13,16,16,20.90
2015,06,13,16,17,21.00
2015,06,13,16,18,21.00
2015,06,13,16,19,21.10
2015,06,13,16,20,21.20
2015,06,13,16,21,21.30
2015,06,13,16,22,21.40
2015,06,13,16,23,21.30
2015,06,13,16,24,21.20
2015,06,13,16,25,21.00
2015,06,13,16,26,20.90
2015,06,13,16,27,20.80
2015,06,13,16,28,20.80
2015,06,13,16,29,20.70
2015,06,13,16,30,20.60
2015,06,13,16,31,20.50
2015,06,13,16,32,20.40
2015,06,13,16,33,20.30
2015,06,13,16,34,20.20
2015,06,13,16,35,20.10
2015,06,13,16,36,20.00
2015,06,13,16,37,19.90
2015,06,13,16,38,19.80
2015,06,13,16,39,19.70
2015,06,13,16,40,19.70
2015,06,13,16,41,19.60
2015,06,13,16,42,19.70
2015,06,13,16,43,19.80
2015,06,13,16,44,19.90
2015,06,13,16,45,19.90
2015,06,13,16,46,20.00
2015,06,13,16,47,20.20
2015,06,13,16,48,20.10
2015,06,13,16,49,20.10
2015,06,13,16,50,20.00
2015,06,13,16,51,20.00
2015,06,13,16,52,20.10
2015,06,13,16,53,20.20
2015,06,13,16,54,20.30
2015,06,13,16,55,20.30
2015,06,13,16,56,20.20
2015,06,13,16,57,20.20
2015,06,13,16,58,20.10
2015,06,13,16,59,20.10
2015,06,13,17,00,20.10
2015,06,13,17,01,20.10
2015,06,13,17,02,20.00
2015,06,13,17,03,19.90
2015,06,13,17,04,19.90
2015,06,13,17,05,19.90
2015,06,13,17,06,19.90
2015,06,13,17,07,19.90
2015,06,13,17,08,20.00
2015,06,13,17,09,20.00
2015,06,13,17,10,20.10
2015,06,13,17,11,20.10
2015,06,13,17,12,20.20
2015,06,13,17,13,20.20
2015,06,13,17,14,20.20
2015,06,13,17,15,20.20
2015,06,13,17,16,20.20
2015,06,13,17,17,20.20
2015,06,13,17,18,20.20
2015,06,13,17,19,20.20
2015,06,13,17,20,20.30
2015,06,13,17,21,20.30
2015,06,13,17,22,20.30
2015,06,13,17,23,20.20
2015,06,13,17,24,20.20
2015,06,13,17,25,20.20
2015,06,13,17,26,20.20
2015,06,13,17,27,20.20
2015,06,13,17,28,20.30
2015,06,13,17,29,20.30
2015,06,13,17,30,20.40
2015,06,13,17,31,20.30